rowid,date,actual_mean_temp,actual_min_temp,actual_max_temp,average_min_temp,average_max_temp,record_min_temp,record_max_temp,record_min_temp_year,record_max_temp_year,actual_precipitation,average_precipitation,record_precipitation
1,2014-7-1,83,72,93,68,86,52,102,1988,1901,0.0,0.13,1.04
2,2014-7-2,86,75,96,68,86,52,103,1965,1901,0.21,0.13,1.73
3,2014-7-3,83,74,92,68,87,54,104,1957,1966,0.09,0.12,3.66
4,2014-7-4,73,68,78,68,87,52,103,1986,1966,0.04,0.13,2.08
5,2014-7-5,74,64,83,69,87,55,100,1963,1999,0.0,0.13,4.38
6,2014-7-6,75,64,86,69,87,52,102,1960,2010,0.0,0.13,1.36
7,2014-7-7,84,74,93,69,87,55,103,1968,2010,0.0,0.13,2.97
8,2014-7-8,84,72,95,69,87,53,100,1960,1993,0.17,0.14,2.28
9,2014-7-9,80,71,89,69,87,53,103,1963,1936,0.0,0.15,1.79
10,2014-7-10,81,74,87,69,87,53,104,1963,1936,0.0,0.14,2.99
11,2014-7-11,80,70,90,69,87,55,100,1963,1988,0.0,0.14,1.92
12,2014-7-12,80,70,89,69,87,55,97,1999,1936,0.0,0.15,4.68
13,2014-7-13,82,72,91,69,87,57,98,1998,1994,0.05,0.14,2.8
14,2014-7-14,82,74,90,69,87,52,101,1940,1954,1.18,0.15,2.89
15,2014-7-15,82,73,91,70,87,56,103,1940,1995,0.81,0.15,2.96
16,2014-7-16,78,72,83,70,87,55,102,1946,1988,0.0,0.15,1.89
17,2014-7-17,75,65,84,70,87,56,102,1946,1988,0.0,0.15,2.06
18,2014-7-18,75,65,84,70,87,57,100,1976,2012,0.0,0.15,3.45
19,2014-7-19,75,68,81,70,87,58,100,1962,1930,0.0,0.14,1.93
20,2014-7-20,76,69,82,70,87,57,99,1890,1930,0.0,0.14,2.32
21,2014-7-21,76,66,86,70,87,51,103,1966,1930,0.0,0.14,3.45
22,2014-7-22,79,70,88,70,87,56,103,1944,2011,0.0,0.14,2.98
23,2014-7-23,83,72,93,70,87,58,101,1950,2011,0.05,0.14,3.05
24,2014-7-24,77,70,83,70,87,57,98,1985,2011,0.0,0.14,1.45
25,2014-7-25,74,63,84,70,87,56,96,1953,1999,0.0,0.14,1.35
26,2014-7-26,75,69,81,70,87,56,101,1920,1892,0.22,0.15,1.97
27,2014-7-27,81,70,91,70,87,53,100,1962,1940,1.25,0.15,2.16
28,2014-7-28,77,69,84,70,87,53,100,1962,1941,0.23,0.14,8.02
29,2014-7-29,70,64,76,70,87,59,98,1914,2002,0.0,0.14,3.53
30,2014-7-30,71,62,80,69,87,58,98,1981,1954,0.0,0.14,3.36
31,2014-7-31,76,65,86,69,87,57,102,1895,1954,0.0,0.14,3.0
32,2014-8-1,77,70,83,69,87,56,99,1964,2002,0.19,0.13,2.01
33,2014-8-2,73,68,77,69,87,58,99,1947,1955,0.36,0.12,2.86
34,2014-8-3,72,67,77,69,87,56,98,1959,1975,0.23,0.12,5.63
35,2014-8-4,78,71,84,69,87,52,98,1965,1995,0.0,0.12,2.74
36,2014-8-5,80,69,90,69,87,52,98,1951,1930,0.0,0.12,1.6
37,2014-8-6,76,69,82,69,86,53,103,1957,1918,0.0,0.11,2.74
38,2014-8-7,75,66,84,69,86,54,106,1964,1918,0.0,0.12,3.7
39,2014-8-8,73,63,82,69,86,55,100,1989,2001,0.0,0.12,4.4
40,2014-8-9,77,67,86,69,86,54,101,1964,2001,0.0,0.12,2.36
41,2014-8-10,78,67,88,69,86,54,98,1964,1949,0.0,0.12,2.24
42,2014-8-11,76,66,85,69,86,55,101,1972,1900,0.0,0.11,2.05
43,2014-8-12,74,68,79,69,86,53,99,1962,1900,1.08,0.11,3.29
44,2014-8-13,77,69,85,69,86,51,99,1941,2002,0.0,0.11,5.21
45,2014-8-14,71,62,80,68,86,50,99,1964,2002,0.25,0.12,4.84
46,2014-8-15,69,60,77,68,86,50,98,1964,1988,0.0,0.11,1.54
47,2014-8-16,71,61,81,68,86,53,98,1979,1997,0.0,0.12,2.25
48,2014-8-17,75,65,84,68,85,50,96,1979,1995,0.0,0.11,2.76
49,2014-8-18,73,63,83,68,85,52,97,1961,1995,0.0,0.11,2.54
50,2014-8-19,77,66,87,68,85,51,94,1963,2002,0.0,0.12,3.73
51,2014-8-20,79,71,86,68,85,52,99,1949,1983,0.0,0.12,1.87
52,2014-8-21,76,68,83,68,85,54,96,1949,1916,0.0,0.11,1.77
53,2014-8-22,74,68,79,67,85,52,97,1940,1916,0.08,0.12,2.73
54,2014-8-23,69,64,74,67,85,53,94,1952,1916,0.25,0.12,3.74
55,2014-8-24,74,64,83,67,84,50,93,1957,1972,0.0,0.1,1.7
56,2014-8-25,75,63,86,67,84,47,97,1963,1968,0.0,0.11,3.03
57,2014-8-26,80,69,90,67,84,51,100,1963,1948,0.0,0.1,2.52
58,2014-8-27,78,67,89,66,84,51,98,1963,1948,0.0,0.11,4.77
59,2014-8-28,74,66,81,66,84,49,99,1986,1948,0.0,0.09,2.33
60,2014-8-29,71,61,81,66,84,44,98,1986,1991,0.0,0.1,1.88
61,2014-8-30,71,60,81,66,83,47,100,1986,1953,0.0,0.1,2.32
62,2014-8-31,83,72,93,66,83,45,101,1965,1953,1.11,0.1,3.41
63,2014-9-1,82,74,89,65,83,49,97,1963,1953,0.01,0.1,1.8
64,2014-9-2,84,74,93,65,83,47,100,1963,1953,0.18,0.12,1.89
65,2014-9-3,78,71,85,65,82,51,100,1958,1953,0.0,0.12,3.37
66,2014-9-4,78,68,87,65,82,52,93,1997,1973,0.0,0.12,3.25
67,2014-9-5,81,72,89,64,82,53,92,1994,1961,0.0,0.12,2.45
68,2014-9-6,83,72,93,64,81,48,95,1962,1983,0.01,0.11,2.19
69,2014-9-7,75,66,83,64,81,47,102,1984,1881,0.0,0.12,1.22
70,2014-9-8,71,67,75,63,81,45,96,1962,1939,0.0,0.12,3.65
71,2014-9-9,72,67,76,63,81,49,94,1956,1884,0.0,0.12,1.59
72,2014-9-10,75,67,82,63,80,45,97,1956,1983,0.0,0.11,1.59
73,2014-9-11,76,67,84,62,80,43,98,1917,1983,0.0,0.13,2.1
74,2014-9-12,71,63,78,62,80,45,95,1940,1931,0.0,0.12,4.6
75,2014-9-13,66,59,72,62,79,44,95,1958,1952,0.36,0.13,2.8
76,2014-9-14,61,53,69,61,79,44,92,1975,1995,0.0,0.13,4.69
77,2014-9-15,63,53,72,61,78,45,95,1895,1927,0.0,0.13,2.74
78,2014-9-16,67,59,74,60,78,45,94,1984,1991,0.2,0.13,6.63
79,2014-9-17,66,56,75,60,78,44,94,1959,1991,0.0,0.13,3.48
80,2014-9-18,65,56,74,60,77,42,90,1959,1891,0.0,0.14,1.91
81,2014-9-19,65,58,72,59,77,43,92,1959,1983,0.0,0.13,1.95
82,2014-9-20,68,56,79,59,77,45,90,1956,1983,0.0,0.13,3.04
83,2014-9-21,72,65,79,58,76,38,97,1956,1895,0.0,0.13,2.44
84,2014-9-22,65,57,73,58,76,39,97,1962,1895,0.0,0.13,4.65
85,2014-9-23,61,50,72,58,75,40,97,1983,1895,0.0,0.12,3.72
86,2014-9-24,64,55,73,57,75,40,95,1963,1970,0.04,0.14,2.08
87,2014-9-25,62,59,64,57,75,35,92,1963,1970,0.89,0.13,1.66
88,2014-9-26,67,55,78,56,74,38,92,1963,1970,0.0,0.13,2.79
89,2014-9-27,72,59,84,56,74,36,91,1947,1998,0.0,0.14,1.85
90,2014-9-28,73,60,86,55,73,37,91,1957,1886,0.0,0.13,3.22
91,2014-9-29,70,64,76,55,73,37,89,1942,1921,0.0,0.14,1.87
92,2014-9-30,71,63,79,54,72,38,88,1942,1881,0.0,0.13,2.41
93,2014-10-1,68,62,73,54,72,34,89,1947,1927,0.0,0.11,3.0
94,2014-10-2,68,62,73,54,72,39,87,1966,2002,0.0,0.11,1.52
95,2014-10-3,66,59,72,53,71,33,90,1974,1919,0.06,0.12,1.11
96,2014-10-4,60,50,70,53,71,34,88,1974,1941,0.17,0.1,2.73
97,2014-10-5,52,43,61,52,70,31,96,1961,1941,0.0,0.12,1.71
98,2014-10-6,60,47,72,52,70,32,95,1965,1941,0.0,0.11,1.48
99,2014-10-7,67,63,71,52,70,37,93,1954,1941,0.38,0.1,1.6
100,2014-10-8,66,56,75,51,69,32,89,1964,2007,0.0,0.11,5.53
101,2014-10-9,61,51,70,51,69,35,86,1978,1939,0.0,0.11,2.17
102,2014-10-10,57,53,61,50,69,33,90,1979,1939,0.0,0.11,2.1
103,2014-10-11,54,50,57,50,68,28,86,1964,1949,0.48,0.1,2.04
104,2014-10-12,55,46,64,50,68,28,88,1964,1954,0.0,0.11,1.62
105,2014-10-13,61,56,66,49,68,32,87,1988,1954,0.02,0.1,0.9
106,2014-10-14,72,65,79,49,67,30,88,1988,1975,0.0,0.11,1.66
107,2014-10-15,72,67,77,49,67,32,87,1876,1975,0.66,0.1,1.04
108,2014-10-16,66,60,72,48,67,31,88,1876,1897,0.24,0.1,1.6
109,2014-10-17,65,57,73,48,66,34,89,1961,1938,0.0,0.1,1.87
110,2014-10-18,63,54,72,48,66,32,85,1982,1908,0.0,0.1,1.11
111,2014-10-19,51,45,56,47,66,29,80,1976,1947,0.0,0.09,3.59
112,2014-10-20,51,39,63,47,65,27,80,1974,1938,0.0,0.1,2.72
113,2014-10-21,61,52,70,47,65,28,86,1952,1947,0.0,0.1,2.21
114,2014-10-22,55,52,58,46,65,26,83,1940,1920,0.44,0.1,2.71
115,2014-10-23,54,51,57,46,64,31,87,1969,1947,0.05,0.1,1.92
116,2014-10-24,62,53,70,46,64,25,83,1969,2001,0.0,0.09,2.26
117,2014-10-25,58,46,70,45,64,25,76,1962,1993,0.0,0.1,3.82
118,2014-10-26,59,50,67,45,63,29,78,1960,1920,0.0,0.09,2.11
119,2014-10-27,57,46,67,45,63,29,80,1936,1963,0.0,0.09,1.45
120,2014-10-28,63,49,76,44,63,28,85,1976,1919,0.0,0.1,2.03
121,2014-10-29,60,50,70,44,62,30,79,1965,1918,0.03,0.1,2.68
122,2014-10-30,53,45,60,44,62,27,81,1962,1946,0.0,0.1,1.77
123,2014-10-31,47,40,54,44,62,26,82,1966,1946,0.0,0.1,1.32
124,2014-11-1,49,45,52,43,61,30,84,1968,1950,0.92,0.1,1.81
125,2014-11-2,46,42,49,43,61,27,81,1976,1950,0.0,0.1,1.65
126,2014-11-3,48,36,60,43,61,28,80,1951,1990,0.0,0.1,1.58
127,2014-11-4,60,49,71,43,60,26,81,1951,1974,0.0,0.09,1.36
128,2014-11-5,61,52,69,42,60,26,80,1879,1961,0.01,0.1,1.48
129,2014-11-6,53,49,56,42,60,26,79,1962,1948,0.52,0.09,1.41
130,2014-11-7,46,38,53,42,59,20,76,1962,1938,0.0,0.1,3.99
131,2014-11-8,42,34,50,41,59,25,78,1960,1975,0.0,0.09,3.07
132,2014-11-9,50,42,57,41,59,23,78,1976,1975,0.0,0.09,1.57
133,2014-11-10,50,37,63,41,58,23,73,1961,1999,0.0,0.09,1.46
134,2014-11-11,57,43,70,41,58,21,74,1961,1949,0.0,0.09,1.03
135,2014-11-12,58,46,70,40,58,26,75,1960,1879,0.0,0.08,1.9
136,2014-11-13,41,35,47,40,57,24,74,1996,1902,0.16,0.09,1.83
137,2014-11-14,39,35,43,40,57,19,76,1986,1955,0.0,0.09,2.64
138,2014-11-15,38,32,44,39,56,19,81,1942,1993,0.0,0.1,2.0
139,2014-11-16,39,33,45,39,56,20,76,1933,2005,0.09,0.09,1.46
140,2014-11-17,46,40,51,39,56,21,72,1933,1987,1.05,0.1,1.58
141,2014-11-18,34,24,44,39,55,20,75,1936,1921,0.0,0.1,1.07
142,2014-11-19,28,20,36,38,55,20,75,1936,1921,0.0,0.11,2.13
143,2014-11-20,41,32,50,38,54,21,76,1984,1985,0.0,0.1,2.59
144,2014-11-21,32,27,37,38,54,19,74,1879,1931,0.0,0.1,2.3
145,2014-11-22,35,23,46,37,54,14,73,1880,1883,0.0,0.11,1.66
146,2014-11-23,48,38,57,37,53,10,72,1880,1931,0.0,0.1,1.8
147,2014-11-24,64,56,72,37,53,16,72,1880,2014,0.37,0.11,2.22
148,2014-11-25,58,47,68,36,52,20,73,2013,1973,0.0,0.11,3.46
149,2014-11-26,42,34,50,36,52,18,70,1938,1999,0.95,0.1,1.69
150,2014-11-27,36,30,42,36,52,16,73,1932,1896,0.0,0.11,1.95
151,2014-11-28,34,28,39,35,51,17,71,1930,1990,0.0,0.11,2.78
152,2014-11-29,36,26,45,35,51,15,70,1955,1927,0.0,0.12,1.68
153,2014-11-30,51,42,59,35,50,8,73,1875,1933,0.0,0.12,0.96
154,2014-12-1,54,42,65,34,50,11,72,1875,2001,0.05,0.12,1.38
155,2014-12-2,41,36,45,34,49,11,66,1875,1970,0.2,0.13,1.48
156,2014-12-3,44,40,48,34,49,9,68,1976,1950,0.11,0.12,1.6
157,2014-12-4,39,32,45,34,49,12,73,1966,1998,0.0,0.13,1.69
158,2014-12-5,41,36,46,33,48,13,71,1886,2001,0.07,0.12,1.52
159,2014-12-6,46,42,50,33,48,15,72,1901,2001,1.02,0.13,1.16
160,2014-12-7,40,32,48,33,48,15,73,1926,1998,0.0,0.12,3.71
161,2014-12-8,32,27,37,32,47,14,67,1882,1980,0.0,0.12,1.22
162,2014-12-9,41,37,45,32,47,6,70,1876,1966,0.66,0.13,2.13
163,2014-12-10,40,36,43,32,46,4,71,1876,1966,0.0,0.13,1.45
164,2014-12-11,36,33,38,31,46,8,65,1880,1971,0.04,0.12,2.72
165,2014-12-12,38,34,42,31,46,8,65,1988,1931,0.0,0.13,1.45
166,2014-12-13,39,35,42,31,45,8,65,1960,1923,0.0,0.12,2.9
167,2014-12-14,42,37,47,30,45,10,69,1960,1881,0.0,0.12,2.02
168,2014-12-15,42,36,48,30,45,7,66,1960,1971,0.0,0.11,1.13
169,2014-12-16,43,32,53,30,44,9,68,1876,1971,0.12,0.12,1.54
170,2014-12-17,46,39,53,30,44,7,65,1919,2000,0.0,0.11,2.23
171,2014-12-18,38,34,41,29,44,4,70,1919,2006,0.0,0.11,1.72
172,2014-12-19,38,33,42,29,44,4,65,1884,1929,0.0,0.11,1.7
173,2014-12-20,34,33,35,29,43,1,64,1942,1957,0.0,0.11,1.32
174,2014-12-21,35,29,40,29,43,1,67,1942,2013,0.0,0.11,1.4
175,2014-12-22,36,27,45,28,43,6,68,1989,2013,0.02,0.11,1.77
176,2014-12-23,48,44,52,28,43,7,66,1989,1990,0.11,0.12,1.62
177,2014-12-24,56,47,64,28,42,3,64,1983,1990,0.82,0.11,1.74
178,2014-12-25,52,39,65,28,42,1,68,1980,1964,0.03,0.11,1.11
179,2014-12-26,42,34,50,28,42,3,68,1983,1964,0.0,0.11,1.9
180,2014-12-27,45,32,57,27,42,8,64,1989,1949,0.0,0.1,1.55
181,2014-12-28,48,39,56,27,42,9,66,1950,2008,0.02,0.1,1.45
182,2014-12-29,43,37,48,27,41,-1,72,1917,1984,0.0,0.1,2.8
183,2014-12-30,33,28,38,27,41,-5,65,1880,1990,0.0,0.09,2.3
184,2014-12-31,29,25,33,27,41,0,66,1880,1884,0.0,0.09,1.09
185,2015-1-1,35,28,42,27,41,4,64,1881,2005,0.0,0.09,1.6
186,2015-1-2,37,29,44,26,41,7,67,1968,1876,0.0,0.1,1.68
187,2015-1-3,36,28,44,26,41,-3,63,1879,2000,0.72,0.09,1.5
188,2015-1-4,50,42,58,26,41,2,68,1918,1950,0.37,0.1,1.51
189,2015-1-5,37,24,50,26,40,-2,66,1904,1997,0.0,0.1,2.24
190,2015-1-6,20,16,24,26,40,4,73,1896,2007,0.12,0.09,2.0
191,2015-1-7,19,13,24,26,40,4,65,2014,1950,0.0,0.1,2.49
192,2015-1-8,15,9,21,26,40,2,69,1970,1998,0.0,0.09,1.2
193,2015-1-9,29,21,36,26,40,1,69,1970,1930,0.01,0.1,1.54
194,2015-1-10,21,16,25,26,40,-5,63,1875,1950,0.0,0.1,1.28
195,2015-1-11,28,15,40,26,40,1,66,1982,1975,0.0,0.1,1.29
196,2015-1-12,36,33,38,25,40,1,72,1981,1890,0.59,0.1,2.19
197,2015-1-13,30,21,38,25,40,0,70,1981,1932,0.0,0.1,1.46
198,2015-1-14,26,20,32,25,40,0,73,1914,1932,0.0,0.1,2.27
199,2015-1-15,33,29,36,25,40,2,71,1964,1932,0.0,0.1,1.23
200,2015-1-16,34,25,43,25,40,0,62,1977,2007,0.0,0.1,1.09
201,2015-1-17,26,18,33,25,40,-7,63,1982,1913,0.0,0.1,1.66
202,2015-1-18,34,24,43,25,40,-4,64,1982,1990,1.84,0.1,1.84
203,2015-1-19,38,30,45,25,40,-5,65,1994,1951,0.0,0.09,1.4
204,2015-1-20,38,29,46,25,40,-3,65,1984,1951,0.0,0.1,1.89
205,2015-1-21,31,27,34,25,40,-6,62,1985,1959,0.06,0.1,1.32
206,2015-1-22,36,30,41,25,40,-7,70,1984,1906,0.03,0.09,1.03
207,2015-1-23,34,25,42,25,40,-2,71,1936,1906,0.16,0.1,2.32
208,2015-1-24,36,33,39,25,40,0,69,1882,1950,0.55,0.1,1.61
209,2015-1-25,40,33,46,25,40,-2,66,1963,1967,0.0,0.1,1.83
210,2015-1-26,31,27,34,26,40,4,74,1961,1950,0.0,0.09,1.57
211,2015-1-27,28,21,34,26,41,4,69,1927,1916,0.07,0.1,1.64
212,2015-1-28,28,20,35,26,41,3,67,1961,1916,0.0,0.09,1.63
213,2015-1-29,28,21,34,26,41,-5,72,1963,2002,0.0,0.11,1.23
214,2015-1-30,31,20,42,26,41,8,70,1948,1947,0.0,0.1,1.79
215,2015-1-31,22,14,29,26,41,3,65,1948,1947,0.0,0.1,1.3
216,2015-2-1,30,21,39,26,41,2,70,1920,2002,0.06,0.1,2.92
217,2015-2-2,32,23,41,26,41,-4,61,1961,1988,0.93,0.1,1.49
218,2015-2-3,25,20,30,26,41,4,62,1881,1991,0.0,0.09,1.64
219,2015-2-4,35,23,47,26,42,2,69,1886,1991,0.0,0.1,1.34
220,2015-2-5,29,17,41,26,42,-2,69,1918,1991,0.0,0.1,1.62
221,2015-2-6,23,14,32,26,42,-3,68,1895,2008,0.0,0.1,3.86
222,2015-2-7,33,21,44,27,42,5,67,1910,2008,0.0,0.09,1.35
223,2015-2-8,42,33,51,27,42,-2,63,1934,1925,0.0,0.09,1.15
224,2015-2-9,33,28,37,27,42,-11,64,1934,1990,0.03,0.1,1.17
225,2015-2-10,35,28,42,27,43,-6,65,1899,1925,0.0,0.09,1.1
226,2015-2-11,33,26,39,27,43,-6,69,1899,2009,0.0,0.09,1.85
227,2015-2-12,31,20,41,27,43,2,70,1979,1999,0.0,0.09,1.35
228,2015-2-13,17,10,24,27,43,3,66,1983,1951,0.0,0.09,2.04
229,2015-2-14,25,18,32,28,44,2,67,1979,1990,0.04,0.09,1.26
230,2015-2-15,15,9,21,28,44,3,74,1943,1949,0.0,0.1,1.09
231,2015-2-16,10,3,17,28,44,2,73,1888,1954,0.02,0.09,1.84
232,2015-2-17,21,13,28,28,44,-2,68,1896,1976,0.24,0.09,1.1
233,2015-2-18,22,11,32,28,44,0,69,1979,1991,0.0,0.1,1.35
234,2015-2-19,16,8,23,28,45,3,68,1903,1948,0.0,0.09,1.65
235,2015-2-20,10,2,18,29,45,1,70,1979,1939,0.0,0.09,2.4
236,2015-2-21,22,9,34,29,45,6,72,1968,1930,0.76,0.09,1.44
237,2015-2-22,40,33,47,29,46,7,68,1963,1974,0.28,0.1,1.88
238,2015-2-23,25,13,37,29,46,6,75,1963,1874,0.0,0.1,1.65
239,2015-2-24,16,7,25,29,46,2,74,1889,1985,0.0,0.09,1.84
240,2015-2-25,27,15,38,30,46,4,79,1894,1930,0.0,0.1,0.9
241,2015-2-26,29,26,32,30,47,10,69,1970,1890,0.0,0.1,2.16
242,2015-2-27,27,22,31,30,47,6,74,1900,1997,0.0,0.09,1.55
243,2015-2-28,24,16,32,30,47,9,68,1934,1976,0.0,0.1,1.4
244,2015-3-1,27,21,32,30,48,9,76,1980,1972,0.52,0.1,1.46
245,2015-3-2,35,29,40,31,48,8,77,1886,1972,0.0,0.11,1.22
246,2015-3-3,30,25,34,31,48,10,73,1886,1991,0.61,0.1,2.2
247,2015-3-4,38,33,43,31,49,7,74,1943,1974,0.49,0.11,1.61
248,2015-3-5,30,20,40,31,49,5,79,1872,1976,0.78,0.1,1.4
249,2015-3-6,19,11,26,32,49,10,71,1978,1935,0.0,0.11,2.06
250,2015-3-7,26,11,41,32,50,9,74,1960,1974,0.0,0.12,1.71
251,2015-3-8,38,26,50,32,50,12,80,1986,2000,0.0,0.12,1.51
252,2015-3-9,45,32,57,32,50,12,73,1960,2000,0.0,0.11,0.94
253,2015-3-10,46,32,59,33,51,7,76,1984,2006,0.71,0.12,1.43
254,2015-3-11,53,44,61,33,51,12,72,1960,1977,0.0,0.11,1.69
255,2015-3-12,45,37,52,33,51,12,83,1900,1990,0.0,0.11,2.64
256,2015-3-13,40,30,49,33,52,8,84,1888,1990,0.08,0.12,2.57
257,2015-3-14,45,38,51,34,52,12,85,1888,1990,0.95,0.12,1.56
258,2015-3-15,44,40,48,34,52,11,81,1993,1990,0.0,0.13,2.79
259,2015-3-16,44,33,55,34,53,16,82,1916,1945,0.0,0.13,1.72
260,2015-3-17,53,37,68,35,53,10,86,1885,1945,0.0,0.13,1.04
261,2015-3-18,39,32,45,35,53,10,78,1916,1989,0.0,0.13,1.13
262,2015-3-19,37,28,46,35,54,9,78,1876,1918,0.0,0.13,2.27
263,2015-3-20,35,32,37,35,54,8,83,1885,1945,0.7,0.13,1.76
264,2015-3-21,42,31,53,36,54,6,85,1885,1948,0.0,0.14,2.24
265,2015-3-22,41,34,48,36,55,11,80,1885,1948,0.0,0.13,1.9
266,2015-3-23,35,27,43,36,55,14,80,1958,2012,0.0,0.12,1.36
267,2015-3-24,36,31,40,37,56,15,76,1896,1988,0.0,0.14,1.24
268,2015-3-25,38,28,47,37,56,16,82,1878,1910,0.05,0.13,2.72
269,2015-3-26,53,39,67,37,56,21,80,1960,1921,0.34,0.13,1.62
270,2015-3-27,44,39,48,38,57,21,83,1894,1921,0.2,0.14,1.78
271,2015-3-28,34,27,41,38,57,18,83,1923,1945,0.0,0.13,1.98
272,2015-3-29,36,26,46,38,57,14,87,1923,1945,0.0,0.13,1.72
273,2015-3-30,46,34,57,39,58,18,86,1887,1998,0.03,0.13,1.59
274,2015-3-31,48,37,59,39,58,21,81,1923,1998,0.06,0.13,1.57
275,2015-4-1,45,34,56,39,59,14,81,1923,1978,0.0,0.13,1.48
276,2015-4-2,52,37,67,40,59,25,84,1964,1967,0.0,0.14,2.76
277,2015-4-3,60,57,63,40,59,27,87,1894,1963,0.12,0.13,2.28
278,2015-4-4,53,42,63,40,60,25,80,1943,1892,0.0,0.13,1.26
279,2015-4-5,53,42,64,41,60,22,81,1981,1942,0.0,0.13,1.23
280,2015-4-6,57,39,75,41,60,24,87,1982,1942,0.0,0.12,1.76
281,2015-4-7,57,44,69,41,61,19,90,1982,1929,0.24,0.12,1.16
282,2015-4-8,42,39,44,42,61,23,90,1982,1929,0.03,0.12,2.67
283,2015-4-9,41,39,43,42,62,26,84,1977,1959,0.02,0.12,2.07
284,2015-4-10,49,41,57,42,62,22,89,1985,2013,0.07,0.13,1.78
285,2015-4-11,55,47,63,43,62,28,84,1966,1887,0.0,0.12,1.03
286,2015-4-12,53,38,67,43,63,18,92,1874,1977,0.0,0.12,1.83
287,2015-4-13,60,44,75,43,63,26,89,1940,1977,0.0,0.12,1.88
288,2015-4-14,58,52,63,44,63,24,91,1950,1941,0.12,0.12,2.28
289,2015-4-15,59,48,70,44,64,27,88,1943,1941,0.0,0.12,4.19
290,2015-4-16,61,50,71,44,64,27,90,1943,2002,0.0,0.11,3.11
291,2015-4-17,65,55,74,45,65,27,95,1962,2002,0.15,0.12,1.16
292,2015-4-18,68,54,81,45,65,25,94,1875,1976,0.0,0.11,2.16
293,2015-4-19,58,49,67,45,65,20,91,1875,1896,0.0,0.11,1.44
294,2015-4-20,63,50,76,46,66,27,92,1897,1941,2.01,0.12,2.01
295,2015-4-21,59,51,66,46,66,27,89,1875,1976,0.82,0.11,2.11
296,2015-4-22,60,47,73,46,66,30,90,1875,1985,0.0,0.11,1.87
297,2015-4-23,48,43,52,47,67,33,91,1982,1960,0.0,0.12,1.55
298,2015-4-24,48,39,57,47,67,33,86,1930,1960,0.0,0.11,1.8
299,2015-4-25,48,37,58,47,67,33,92,1956,1960,0.0,0.11,2.11
300,2015-4-26,55,45,64,48,68,35,93,1967,2009,0.0,0.11,2.42
301,2015-4-27,54,48,60,48,68,36,93,1967,1915,0.0,0.12,1.59
302,2015-4-28,61,51,71,48,68,34,90,1946,1990,0.0,0.11,2.19
303,2015-4-29,64,51,77,49,69,29,90,1874,1974,0.0,0.12,0.85
304,2015-4-30,61,50,72,49,69,34,91,1874,1888,0.0,0.1,4.42
305,2015-5-1,57,49,64,49,69,34,90,1978,1942,0.0,0.1,1.77
306,2015-5-2,61,47,74,50,70,35,89,1960,2010,0.0,0.11,2.49
307,2015-5-3,65,49,81,50,70,35,90,1966,2001,0.0,0.11,1.36
308,2015-5-4,70,54,85,50,70,35,91,1957,2001,0.0,0.11,1.88
309,2015-5-5,74,62,85,51,71,33,90,1966,1928,0.0,0.11,1.8
310,2015-5-6,67,57,77,51,71,36,90,1891,1986,0.0,0.12,2.0
311,2015-5-7,69,57,81,51,71,35,94,1970,1930,0.0,0.11,2.69
312,2015-5-8,69,55,83,51,71,37,93,1947,1936,0.0,0.12,1.42
313,2015-5-9,70,60,80,52,72,33,93,1947,1936,0.03,0.11,1.57
314,2015-5-10,76,67,84,52,72,33,93,1966,1896,0.0,0.12,1.35
315,2015-5-11,77,69,84,52,72,28,93,1966,1896,0.0,0.12,1.82
316,2015-5-12,77,66,88,53,73,37,91,1962,1881,0.0,0.11,1.58
317,2015-5-13,63,54,72,53,73,37,92,1967,1881,0.0,0.12,1.4
318,2015-5-14,61,50,72,53,73,40,92,1996,1956,0.0,0.12,1.48
319,2015-5-15,65,54,76,54,74,39,93,1966,1900,0.0,0.12,1.4
320,2015-5-16,73,59,86,54,74,40,90,1959,1951,0.33,0.13,2.03
321,2015-5-17,76,68,84,54,74,37,92,1956,1974,0.01,0.12,1.33
322,2015-5-18,74,61,87,55,74,41,94,1973,1962,0.03,0.12,1.47
323,2015-5-19,72,61,83,55,75,41,96,1882,1962,0.01,0.12,2.36
324,2015-5-20,67,58,75,55,75,43,94,2002,1962,0.0,0.13,1.64
325,2015-5-21,55,51,58,56,75,41,95,2002,1934,0.18,0.13,2.94
326,2015-5-22,65,53,77,56,76,43,96,1895,1941,0.0,0.13,1.67
327,2015-5-23,61,51,71,56,76,41,96,1961,1925,0.0,0.13,1.77
328,2015-5-24,67,52,82,57,76,40,90,1963,1964,0.0,0.12,2.49
329,2015-5-25,75,63,87,57,77,40,96,1963,1991,0.0,0.12,1.77
330,2015-5-26,77,65,89,57,77,43,96,1961,1880,0.0,0.13,1.7
331,2015-5-27,80,71,89,58,77,42,95,1961,1991,0.6,0.12,3.16
332,2015-5-28,80,70,89,58,77,41,94,1961,1941,0.0,0.12,2.28
333,2015-5-29,77,66,87,58,78,42,95,1884,1991,0.0,0.12,2.25
334,2015-5-30,78,68,87,59,78,41,97,1961,1991,0.0,0.13,1.74
335,2015-5-31,81,70,92,59,78,42,97,1965,1991,0.0,0.13,1.65
336,2015-6-1,67,58,76,59,79,44,97,1967,1895,1.96,0.12,1.96
337,2015-6-2,56,53,58,60,79,46,98,1907,1925,0.3,0.12,2.96
338,2015-6-3,63,55,70,60,79,48,97,1986,1919,0.01,0.12,1.6
339,2015-6-4,64,57,70,60,80,47,98,1977,1925,0.0,0.12,1.96
340,2015-6-5,66,56,76,61,80,48,100,1990,1925,0.13,0.13,2.31
341,2015-6-6,73,64,81,61,80,45,100,1945,1925,0.05,0.12,1.95
342,2015-6-7,68,58,77,61,80,47,98,1958,1925,0.0,0.13,3.5
343,2015-6-8,75,64,86,62,81,44,97,1977,2011,0.88,0.12,2.0
344,2015-6-9,78,69,86,62,81,44,99,1957,2011,0.02,0.12,2.03
345,2015-6-10,76,65,86,62,81,47,98,1988,2008,0.0,0.12,2.59
346,2015-6-11,81,70,92,63,82,44,95,1972,1986,0.0,0.11,2.04
347,2015-6-12,85,75,95,63,82,48,95,1979,1947,0.0,0.11,3.05
348,2015-6-13,83,77,88,63,82,50,95,1979,1956,0.0,0.11,2.21
349,2015-6-14,81,72,90,64,83,48,96,1965,1988,0.09,0.12,1.88
350,2015-6-15,82,74,89,64,83,47,100,1884,1994,0.0,0.11,2.27
351,2015-6-16,83,74,91,64,83,49,100,1963,1991,0.0,0.11,3.3
352,2015-6-17,78,69,86,64,83,44,98,1964,1957,0.0,0.1,2.41
353,2015-6-18,70,65,74,65,84,48,96,1950,1957,0.65,0.11,1.93
354,2015-6-19,79,70,87,65,84,53,100,1946,1994,0.27,0.1,1.64
355,2015-6-20,79,71,86,65,84,51,98,1956,1931,0.48,0.11,1.64
356,2015-6-21,82,73,91,66,84,48,99,1968,1923,0.3,0.11,1.62
357,2015-6-22,82,73,91,66,85,48,100,1963,1988,0.0,0.11,2.47
358,2015-6-23,83,70,95,66,85,47,97,1963,1888,0.55,0.11,2.12
359,2015-6-24,77,69,85,66,85,52,99,1947,1923,0.0,0.11,2.61
360,2015-6-25,76,68,84,67,85,52,98,1979,1952,0.13,0.11,2.55
361,2015-6-26,76,68,84,67,85,51,100,1960,1952,0.0,0.12,2.77
362,2015-6-27,67,63,71,67,86,50,97,1965,1963,1.34,0.1,3.27
363,2015-6-28,73,66,79,67,86,54,97,1961,1963,0.22,0.11,2.48
364,2015-6-29,72,63,81,68,86,52,102,1888,1934,0.0,0.12,4.62
365,2015-6-30,77,67,86,68,86,52,100,1988,1964,1.5,0.12,1.56
